Hourly Weather Lebrija

Today, 1 October, Thursday

Time Temperature Precipitation Wind Pressure Humidity
00:00 +22°C° 0 mm 1 mps 759 mmHg 80%
01:00 +21°C° 0 mm 1 mps 759 mmHg 80%
02:00 +20°C° 0 mm 2 mps 758 mmHg 79%
03:00 +19°C° 0 mm 2 mps 758 mmHg 79%
04:00 +19°C° 0 mm 2 mps 758 mmHg 78%
05:00 +18°C° 0 mm 2 mps 758 mmHg 78%
06:00 +18°C° 0 mm 2 mps 758 mmHg 77%
07:00 +19°C° 0 mm 3 mps 758 mmHg 68%
08:00 +21°C° 0 mm 3 mps 758 mmHg 59%
09:00 +22°C° 0 mm 3 mps 758 mmHg 50%
10:00 +25°C° 0 mm 4 mps 758 mmHg 43%
11:00 +27°C° 0 mm 4 mps 758 mmHg 36%
12:00 +29°C° 0 mm 5 mps 758 mmHg 29%
13:00 +29°C° 0 mm 5 mps 757 mmHg 31%
14:00 +29°C° 0 mm 6 mps 757 mmHg 33%
15:00 +29°C° 0 mm 6 mps 756 mmHg 36%
16:00 +28°C° 0 mm 6 mps 756 mmHg 45%
17:00 +26°C° 0 mm 6 mps 756 mmHg 55%
18:00 +23°C° 0 mm 6 mps 756 mmHg 64%
19:00 +23°C° 0 mm 5 mps 756 mmHg 64%
20:00 +22°C° 0 mm 5 mps 757 mmHg 65%
21:00 +22°C° 0 mm 4 mps 757 mmHg 65%
22:00 +21°C° 0 mm 4 mps 757 mmHg 65%
23:00 +20°C° 0 mm 4 mps 757 mmHg 65%

Tomorrow, 2 October, Friday

Time Temperature Precipitation Wind Pressure Humidity
00:00 +19°C° 0 mm 4 mps 756 mmHg 64%
01:00 +19°C° 0 mm 4 mps 756 mmHg 66%
02:00 +18°C° 0 mm 4 mps 756 mmHg 67%
03:00 +18°C° 0 mm 3 mps 755 mmHg 68%
04:00 +18°C° 0 mm 3 mps 755 mmHg 71%
05:00 +18°C° 0 mm 3 mps 755 mmHg 75%
06:00 +17°C° 0 mm 3 mps 754 mmHg 78%
07:00 +19°C° 0 mm 5 mps 754 mmHg 74%
08:00 +20°C° 0 mm 6 mps 754 mmHg 70%
09:00 +21°C° 0 mm 8 mps 754 mmHg 67%
10:00 +22°C° 0.1 mm 9 mps 753 mmHg 69%
11:00 +22°C° 0.1 mm 10 mps 753 mmHg 70%
12:00 +22°C° 0.1 mm 11 mps 752 mmHg 72%
13:00 +23°C° 0.3 mm 11 mps 752 mmHg 68%
14:00 +23°C° 0.3 mm 11 mps 751 mmHg 64%
15:00 +24°C° 0.3 mm 11 mps 751 mmHg 60%
16:00 +23°C° 0.1 mm 10 mps 752 mmHg 56%
17:00 +22°C° 0.1 mm 8 mps 752 mmHg 51%
18:00 +20°C° 0.1 mm 7 mps 752 mmHg 47%
19:00 +18°C° 0 mm 7 mps 753 mmHg 48%
20:00 +17°C° 0 mm 6 mps 754 mmHg 48%
21:00 +16°C° 0 mm 5 mps 755 mmHg 49%
22:00 +15°C° 0 mm 5 mps 755 mmHg 50%
23:00 +14°C° 0 mm 6 mps 755 mmHg 52%

Day after tomorrow, 3 October, Saturday

Time Temperature Precipitation Wind Pressure Humidity
00:00 +14°C° 0 mm 6 mps 756 mmHg 54%
01:00 +13°C° 0 mm 5 mps 756 mmHg 58%
02:00 +13°C° 0 mm 4 mps 756 mmHg 62%
03:00 +12°C° 0 mm 4 mps 756 mmHg 66%
04:00 +12°C° 0 mm 4 mps 756 mmHg 69%
05:00 +12°C° 0 mm 3 mps 756 mmHg 72%
06:00 +11°C° 0 mm 3 mps 757 mmHg 75%
07:00 +13°C° 0 mm 4 mps 757 mmHg 69%
08:00 +15°C° 0 mm 4 mps 757 mmHg 62%
09:00 +16°C° 0 mm 5 mps 758 mmHg 55%
10:00 +19°C° 0 mm 5 mps 757 mmHg 48%
11:00 +21°C° 0 mm 5 mps 757 mmHg 41%
12:00 +22°C° 0 mm 5 mps 757 mmHg 34%
13:00 +23°C° 0 mm 5 mps 757 mmHg 32%
14:00 +23°C° 0 mm 5 mps 757 mmHg 31%
15:00 +25°C° 0 mm 5 mps 756 mmHg 30%
16:00 +23°C° 0 mm 5 mps 756 mmHg 35%
17:00 +22°C° 0 mm 5 mps 756 mmHg 40%
18:00 +20°C° 0 mm 5 mps 756 mmHg 45%
19:00 +20°C° 0 mm 4 mps 757 mmHg 50%
20:00 +19°C° 0 mm 3 mps 757 mmHg 56%
21:00 +18°C° 0 mm 2 mps 758 mmHg 61%
22:00 +18°C° 0 mm 3 mps 758 mmHg 63%
23:00 +17°C° 0 mm 3 mps 758 mmHg 64%

4 October, Sunday

Time Temperature Precipitation Wind Pressure Humidity
00:00 +16°C° 0 mm 3 mps 758 mmHg 65%
01:00 +16°C° 0 mm 3 mps 757 mmHg 69%
02:00 +15°C° 0 mm 2 mps 757 mmHg 72%
03:00 +15°C° 0 mm 2 mps 757 mmHg 75%
04:00 +14°C° 0 mm 2 mps 757 mmHg 77%
05:00 +14°C° 0 mm 1 mps 757 mmHg 79%
06:00 +14°C° 0 mm 1 mps 757 mmHg 81%
07:00 +15°C° 0 mm 2 mps 757 mmHg 74%
08:00 +17°C° 0 mm 2 mps 758 mmHg 67%
09:00 +19°C° 0 mm 2 mps 758 mmHg 60%
10:00 +20°C° 0 mm 3 mps 758 mmHg 57%
11:00 +21°C° 0 mm 4 mps 758 mmHg 53%
12:00 +22°C° 0 mm 4 mps 757 mmHg 50%
13:00 +22°C° 0 mm 5 mps 757 mmHg 53%
14:00 +23°C° 0 mm 5 mps 757 mmHg 56%
15:00 +23°C° 0 mm 6 mps 757 mmHg 58%
16:00 +22°C° 0 mm 5 mps 757 mmHg 61%
17:00 +22°C° 0 mm 4 mps 757 mmHg 65%
18:00 +21°C° 0 mm 4 mps 757 mmHg 68%
19:00 +20°C° 0 mm 4 mps 757 mmHg 66%
20:00 +20°C° 0 mm 4 mps 758 mmHg 64%
21:00 +19°C° 0 mm 4 mps 758 mmHg 63%
22:00 +18°C° 0 mm 4 mps 758 mmHg 63%
23:00 +17°C° 0 mm 4 mps 758 mmHg 62%

5 October, Monday

Time Temperature Precipitation Wind Pressure Humidity
00:00 +15°C° 0 mm 4 mps 759 mmHg 62%
01:00 +16°C° 0 mm 3 mps 759 mmHg 65%
02:00 +14°C° 0 mm 3 mps 759 mmHg 68%
03:00 +14°C° 0 mm 3 mps 759 mmHg 71%
04:00 +13°C° 0 mm 3 mps 759 mmHg 74%
05:00 +13°C° 0 mm 3 mps 760 mmHg 76%
06:00 +13°C° 0 mm 3 mps 760 mmHg 79%
07:00 +14°C° 0 mm 3 mps 760 mmHg 71%
08:00 +17°C° 0 mm 3 mps 761 mmHg 63%
09:00 +18°C° 0 mm 4 mps 761 mmHg 55%
10:00 +20°C° 0 mm 4 mps 761 mmHg 48%
11:00 +21°C° 0 mm 4 mps 761 mmHg 42%
12:00 +23°C° 0 mm 4 mps 761 mmHg 35%
13:00 +23°C° 0 mm 4 mps 761 mmHg 34%
14:00 +25°C° 0 mm 4 mps 761 mmHg 32%
15:00 +26°C° 0 mm 4 mps 761 mmHg 30%
16:00 +23°C° 0 mm 4 mps 761 mmHg 36%
17:00 +22°C° 0 mm 4 mps 761 mmHg 42%
18:00 +21°C° 0 mm 5 mps 761 mmHg 49%
19:00 +20°C° 0 mm 4 mps 761 mmHg 54%
20:00 +19°C° 0 mm 3 mps 761 mmHg 59%
21:00 +19°C° 0 mm 2 mps 762 mmHg 64%
22:00 +18°C° 0 mm 2 mps 762 mmHg 63%
23:00 +18°C° 0 mm 2 mps 762 mmHg 62%

6 October, Tuesday

Time Temperature Precipitation Wind Pressure Humidity
00:00 +17°C° 0 mm 2 mps 762 mmHg 62%
01:00 +17°C° 0 mm 2 mps 762 mmHg 62%
02:00 +16°C° 0 mm 2 mps 762 mmHg 62%
03:00 +16°C° 0 mm 2 mps 761 mmHg 62%
04:00 +16°C° 0 mm 2 mps 762 mmHg 63%
05:00 +16°C° 0 mm 2 mps 762 mmHg 63%
06:00 +15°C° 0 mm 2 mps 762 mmHg 64%
07:00 +17°C° 0 mm 2 mps 762 mmHg 57%
08:00 +19°C° 0 mm 2 mps 762 mmHg 51%
09:00 +21°C° 0 mm 2 mps 762 mmHg 44%
10:00 +22°C° 0 mm 3 mps 762 mmHg 39%
11:00 +25°C° 0 mm 3 mps 762 mmHg 33%
12:00 +27°C° 0 mm 3 mps 762 mmHg 27%
13:00 +28°C° 0 mm 3 mps 761 mmHg 27%
14:00 +28°C° 0 mm 3 mps 761 mmHg 26%
15:00 +29°C° 0 mm 3 mps 760 mmHg 26%
16:00 +28°C° 0 mm 3 mps 760 mmHg 29%
17:00 +26°C° 0 mm 2 mps 760 mmHg 33%
18:00 +25°C° 0 mm 2 mps 760 mmHg 36%
19:00 +24°C° 0 mm 2 mps 761 mmHg 41%
20:00 +23°C° 0 mm 2 mps 761 mmHg 47%
21:00 +21°C° 0 mm 2 mps 761 mmHg 52%
22:00 +22°C° 0 mm 1 mps 761 mmHg 52%
23:00 +21°C° 0 mm 1 mps 761 mmHg 53%
Show more